Regional Weather Roundup
Issued by NWS

Home | Current Version | Previous Version | Graphics & Text | Print | Product List | Glossary On
Versions: 1 2 3 4 5 6 7 8 9 10 11 12 13 14 15 16 17 18 19 20 21 22 23 24 25 26 27 28 29 30 31 32 33 34 35 36 37 38 39 40 41 42 43 44 45 46 47 48 49 50
000
ASUS43 KOAX 021510
RWRNE

WEATHER ROUNDUP FOR NEBRASKA
NATIONAL WEATHER SERVICE OMAHA NE
1000 AM CDT TUE JUN 02 2015

NOTES: SATELLITE DATA IS BEING USED TO AUGMENT CLOUD COVER ABOVE
       12000 FEET.
       "FAIR" INDICATES FEW OR NO CLOUDS BELOW 12,000 FEET WITH NO
       SIGNIFICANT WEATHER AND/OR OBSTRUCTIONS TO VISIBILITY.

  * THESE STATIONS DO NOT REPORT WEATHER SUCH AS RAIN...SNOW OR FOG.

NEZ001>004-019>022-054>056-021600-
NEBRASKA PANHANDLE

CITY           SKY/WX    TMP DP  RH WIND       PRES   REMARKS
SCOTTSBLUFF    SUNNY     69  58  67 W6        29.92S
ALLIANCE       MOSUNNY   67  60  78 SW12      29.91F
CHADRON        MOSUNNY   72  57  59 W17G23    29.85R
KIMBALL          N/A    N/A N/A N/A MISG        N/A
SIDNEY         MOSUNNY   66  57  72 S18       29.94F
$$

NEZ057>060-069>072-079>082-021600-
SOUTHWEST NEBRASKA

CITY           SKY/WX    TMP DP  RH WIND       PRES   REMARKS
NORTH PLATTE   SUNNY     69  60  73 S8        29.92R
IMPERIAL       SUNNY     69  59  70 S12       29.90F
LEXINGTON      PTSUNNY   65  63  92 S7        29.92R
MCCOOK         MOSUNNY   72  64  76 S18       29.88S
OGALLALA       SUNNY     70  59  68 SW3       29.91R
$$

NEZ005>010-023>029-035>040-094-021600-
NORTH CENTRAL NEBRASKA

CITY           SKY/WX    TMP DP  RH WIND       PRES   REMARKS
AINSWORTH      MOSUNNY   72  60  66 S13       29.88R
BROKEN BOW     CLOUDY    66  61  84 S9        29.92S
O`NEILL        CLOUDY    65  60  82 S15G26    29.91S
ORD            CLOUDY    65  58  78 S15       29.93R
THEDFORD       SUNNY     72  58  61 S12       29.92R
$$

NEZ041-046>049-061>064-073>077-083>087-021600-
SOUTH CENTRAL NEBRASKA

CITY           SKY/WX    TMP DP  RH WIND       PRES   REMARKS
GRAND ISLAND   CLOUDY    61  56  83 S17G26    29.97R
AURORA         CLOUDY    61  58  91 S16G24    29.97S
HASTINGS       CLOUDY    61  58  90 S12       29.97R
HEBRON         PTSUNNY   64  57  79 S17G23    29.97F
HOLDREGE       CLOUDY    63  60  90 S13G20    29.92R
KEARNEY *      CLOUDY    63  59  88 S13       29.95R
YORK           CLOUDY    61  57  88 S14       29.98R
$$

NEZ011>018-030>034-042>045-021600-
NORTHEAST NEBRASKA

CITY           SKY/WX    TMP DP  RH WIND       PRES   REMARKS
NORFOLK        PTSUNNY   68  58  70 SE18      29.95F
ALBION         CLOUDY    63  55  77 S17G24    29.96R
BLAIR          CLOUDY    62  53  71 SE18      30.00F
COLUMBUS *     PTSUNNY   64  55  72 S16G22    29.98F
FREMONT        PTSUNNY   66  55  69 SE18      30.00R
TEKAMAH        CLOUDY    65  54  67 SE23      30.01S
WAYNE          CLOUDY    64  56  77 S21       29.97F
$$

NEZ050>053-065>068-078-088>093-021600-
SOUTHEAST NEBRASKA

CITY           SKY/WX    TMP DP  RH WIND       PRES   REMARKS
LINCOLN        PTSUNNY   65  56  72 SE17      29.99F
OMAHA EPPLEY   CLOUDY    64  54  69 SE20      30.01F
BEATRICE       CLOUDY    62  58  84 SE14      30.00F
FALLS CITY     PTSUNNY   64  56  75 SE15G22   30.03F
NEBRASKA CITY  CLOUDY    63  53  71 S18       30.03F
PLATTSMOUTH    CLOUDY    62  54  73 S16G24    30.02F
$$

NEZ044-045-051>053-067-021600-
OMAHA AREA

CITY           SKY/WX    TMP DP  RH WIND       PRES   REMARKS
OMAHA EPPLEY   CLOUDY    64  54  69 SE20      30.01F
BLAIR          CLOUDY    62  53  71 SE18      30.00F
FREMONT        PTSUNNY   66  55  69 SE18      30.00R
MILLARD        CLOUDY    64  56  76 SE16      30.01F
OFFUTT AFB     CLOUDY    63  55  73 SE20      30.00F
PLATTSMOUTH    CLOUDY    62  54  73 S16G24    30.02F
WAHOO          CLOUDY    64  55  74 S17       30.00S
$$



USA.gov is the U.S. government's official web portal to all federal, state and local government web resources and services.